29-11-2023, 00:00:01,    263,    0.0,    1.5,   0.00,   0.00, 1005.1,    0.7, -999.0
29-11-2023, 00:00:10,    263,    0.0,    1.6,   0.00,   0.00, 1005.1,    0.3, -999.0
29-11-2023, 00:00:20,    263,    0.0,    1.6,   0.00,   0.00, 1005.1,    0.5, -999.0
29-11-2023, 00:00:31,    264,    0.0,    1.6,   0.00,   0.00, 1005.1,    0.5, -999.0
29-11-2023, 00:00:40,    264,    0.0,    1.5,   0.00,   0.00, 1005.1,    0.6, -999.0
29-11-2023, 00:00:50,    261,    0.0,    1.5,   0.00,   0.00, 1005.1,    0.5, -999.0
29-11-2023, 00:01:00,    263,    0.0,    1.5,   0.00,   0.00, 1005.1,    0.7, -999.0
29-11-2023, 00:01:11,    263,    0.0,    1.5,   0.00,   0.00, 1005.1,    0.6, -999.0
29-11-2023, 00:01:20,    263,    0.0,    1.4,   0.00,   0.00, 1005.1,    0.7, -999.0
29-11-2023, 00:01:30,    263,    0.0,    1.5,   0.00,   0.00, 1005.1,    0.6, -999.0
29-11-2023, 00:01:40,    264,    0.0,    1.6,   0.00,   0.00, 1005.1,    0.4, -999.0
29-11-2023, 00:01:50,    263,    0.0,    1.6,   0.00,   0.00, 1005.1,    0.6, -999.0
29-11-2023, 00:02:00,    264,    0.0,    1.5,   0.00,   0.00, 1005.1,    0.7, -999.0
29-11-2023, 00:02:10,    263,    0.0,    1.6,   0.00,   0.00, 1005.1,    0.6, -999.0
29-11-2023, 00:02:20,    263,    0.0,    1.5,   0.00,   0.00, 1005.1,    0.4, -999.0
29-11-2023, 00:02:30,    263,    0.0,    1.5,   0.00,   0.00, 1005.1,    0.6, -999.0
29-11-2023, 00:02:40,    263,    0.0,    1.6,   0.00,   0.00, 1005.1,    0.9, -999.0
29-11-2023, 00:02:50,    264,    0.0,    1.5,   0.00,   0.00, 1005.1,    0.3, -999.0
29-11-2023, 00:03:00,    264,    0.0,    1.5,   0.00,   0.00, 1005.1,    0.4, -999.0
29-11-2023, 00:03:10,    264,    0.0,    1.5,   0.00,   0.00, 1005.1,    0.8, -999.0
29-11-2023, 00:03:20,    264,    0.0,    1.5,   0.00,   0.00, 1005.1,    0.5, -999.0
29-11-2023, 00:03:30,    263,    0.0,    1.5,   0.00,   0.00, 1005.1,    0.4, -999.0
29-11-2023, 00:03:40,    264,    0.0,    1.5,   0.00,   0.00, 1005.1,    0.8, -999.0
29-11-2023, 00:03:50,    263,    0.0,    1.4,   0.00,   0.00, 1005.1,    0.5, -999.0
29-11-2023, 00:04:00,    264,    0.0,    1.5,   0.00,   0.00, 1005.1,    0.5, -999.0
29-11-2023, 00:04:10,    263,    0.0,    1.5,   0.00,   0.00, 1005.1,    0.8, -999.0
29-11-2023, 00:04:20,    264,    0.0,    1.5,   0.00,   0.00, 1005.1,    0.6, -999.0
29-11-2023, 00:04:30,    263,    0.0,    1.4,   0.00,   0.00, 1005.1,    0.6, -999.0
29-11-2023, 00:04:40,    264,    0.0,    1.4,   0.00,   0.00, 1005.1,    0.5, -999.0
29-11-2023, 00:04:50,    263,    0.0,    1.5,   0.00,   0.00, 1005.1,    0.4, -999.0
29-11-2023, 00:05:00,    263,    0.0,    1.5,   0.00,   0.00, 1005.1,    0.5, -999.0
29-11-2023, 00:05:10,    263,    0.0,    1.5,   0.00,   0.00, 1005.1,    0.7, -999.0
29-11-2023, 00:05:20,    264,    0.0,    1.5,   0.00,   0.00, 1005.1,    0.4, -999.0
29-11-2023, 00:05:30,    264,    0.0,    1.5,   0.00,   0.00, 1005.1,    0.8, -999.0
29-11-2023, 00:05:40,    264,    0.0,    1.5,   0.00,   0.00, 1005.1,    0.5, -999.0
29-11-2023, 00:05:50,    263,    0.0,    1.5,   0.00,   0.00, 1005.1,    0.4, -999.0
29-11-2023, 00:06:00,    263,    0.0,    1.5,   0.00,   0.00, 1005.1,    0.6, -999.0
29-11-2023, 00:06:10,    263,    0.0,    1.5,   0.00,   0.00, 1005.1,    0.6, -999.0
29-11-2023, 00:06:20,    263,    0.0,    1.5,   0.00,   0.00, 1005.1,    0.4, -999.0
29-11-2023, 00:06:30,    264,    0.0,    1.5,   0.00,   0.00, 1005.1,    0.5, -999.0
29-11-2023, 00:06:40,    263,    0.0,    1.5,   0.00,   0.00, 1005.1,    0.6, -999.0
29-11-2023, 00:06:50,    263,    0.0,    1.5,   0.00,   0.00, 1005.1,    0.4, -999.0
29-11-2023, 00:07:00,    263,    0.0,    1.5,   0.00,   0.00, 1005.1,    0.5, -999.0
29-11-2023, 00:07:10,    264,    0.0,    1.5,   0.00,   0.00, 1005.1,    0.5, -999.0
29-11-2023, 00:07:20,    264,    0.0,    1.4,   0.00,   0.00, 1005.1,    0.4, -999.0
29-11-2023, 00:07:30,    264,    0.0,    1.5,   0.00,   0.00, 1005.1,    0.6, -999.0
29-11-2023, 00:07:40,    264,    0.0,    1.5,   0.00,   0.00, 1005.1,    0.7, -999.0
29-11-2023, 00:07:50,    263,    0.0,    1.5,   0.00,   0.00, 1005.1,    0.5, -999.0
29-11-2023, 00:07:59,    263,    0.0,    1.5,   0.00,   0.00, 1005.1,    0.5, -999.0
29-11-2023, 00:08:10,    263,    0.0,    1.5,   0.00,   0.00, 1005.1,    0.5, -999.0
29-11-2023, 00:08:20,    264,    0.0,    1.5,   0.00,   0.00, 1005.1,    0.6, -999.0
29-11-2023, 00:08:30,    264,    0.0,    1.5,   0.00,   0.00, 1005.1,    0.5, -999.0
29-11-2023, 00:08:39,    264,    0.0,    1.5,   0.00,   0.00, 1005.1,    0.9, -999.0
29-11-2023, 00:08:50,    263,    0.0,    1.5,   0.00,   0.00, 1005.1,    0.7, -999.0
29-11-2023, 00:09:00,    264,    0.0,    1.4,   0.00,   0.00, 1005.1,    0.4, -999.0
29-11-2023, 00:09:09,    263,    0.0,    1.5,   0.00,   0.00, 1005.1,    0.7, -999.0
29-11-2023, 00:09:19,    264,    0.0,    1.5,   0.00,   0.00, 1005.1,    0.6, -999.0
29-11-2023, 00:09:30,    263,    0.0,    1.4,   0.00,   0.00, 1005.1,    0.6, -999.0
29-11-2023, 00:09:40,    263,    0.0,    1.5,   0.00,   0.00, 1005.1,    0.5, -999.0
29-11-2023, 00:09:49,    264,    0.0,    1.5,   0.00,   0.00, 1005.1,    0.6, -999.0
29-11-2023, 00:09:59,    264,    0.0,    1.4,   0.00,   0.00, 1005.1,    0.4, -999.0
29-11-2023, 00:10:10,    263,    0.0,    1.5,   0.00,   0.00, 1005.1,    0.8, -999.0
29-11-2023, 00:10:19,    263,    0.0,    1.5,   0.00,   0.00, 1005.1,    0.8, -999.0
29-11-2023, 00:10:29,    264,    0.0,    1.3,   0.00,   0.00, 1005.1,    0.5, -999.0
29-11-2023, 00:10:39,    263,    0.0,    1.5,   0.00,   0.00, 1005.1,    0.5, -999.0
29-11-2023, 00:10:49,    263,    0.0,    1.5,   0.00,   0.00, 1005.1,    0.5, -999.0
29-11-2023, 00:10:59,    264,    0.0,    1.5,   0.00,   0.00, 1005.1,    0.7, -999.0
29-11-2023, 00:11:09,    263,    0.0,    1.4,   0.00,   0.00, 1005.1,    0.7, -999.0
29-11-2023, 00:11:19,    263,    0.0,    1.4,   0.00,   0.00, 1005.1,    0.5, -999.0
29-11-2023, 00:11:29,    263,    0.0,    1.4,   0.00,   0.00, 1005.1,    0.5, -999.0
29-11-2023, 00:11:39,    263,    0.0,    1.4,   0.00,   0.00, 1005.1,    0.4, -999.0
29-11-2023, 00:11:49,    263,    0.0,    1.5,   0.00,   0.00, 1005.1,    0.4, -999.0
29-11-2023, 00:11:59,    263,    0.0,    1.4,   0.00,   0.00, 1005.1,    0.5, -999.0
29-11-2023, 00:12:09,    263,    0.0,    1.4,   0.00,   0.00, 1005.1,    0.7, -999.0
29-11-2023, 00:12:19,    263,    0.0,    1.4,   0.00,   0.00, 1005.1,    0.9, -999.0
29-11-2023, 00:12:29,    263,    0.0,    1.5,   0.00,   0.00, 1005.1,    0.6, -999.0
29-11-2023, 00:12:39,    262,    0.0,    1.5,   0.00,   0.00, 1005.1,    0.5, -999.0
29-11-2023, 00:12:49,    262,    0.0,    1.4,   0.00,   0.00, 1005.1,    0.5, -999.0
29-11-2023, 00:12:59,    261,    0.0,    1.5,   0.00,   0.00, 1005.1,    0.4, -999.0
29-11-2023, 00:13:09,    262,    0.0,    1.5,   0.00,   0.00, 1005.1,    0.4, -999.0
29-11-2023, 00:13:19,    262,    0.0,    1.4,   0.00,   0.00, 1005.1,    0.6, -999.0
29-11-2023, 00:13:29,    262,    0.0,    1.5,   0.00,   0.00, 1005.1,    0.5, -999.0
29-11-2023, 00:13:39,    255,    0.0,    1.5,   0.00,   0.00, 1005.1,    0.6, -999.0
29-11-2023, 00:13:49,    262,    0.0,    1.5,   0.00,   0.00, 1005.1,    0.9, -999.0
29-11-2023, 00:13:59,    262,    0.0,    1.5,   0.00,   0.00, 1005.1,    0.4, -999.0
29-11-2023, 00:14:09,    262,    0.0,    1.5,   0.00,   0.00, 1005.1,    0.3, -999.0
29-11-2023, 00:14:19,    262,    0.0,    1.5,   0.00,   0.00, 1005.1,    0.7, -999.0
29-11-2023, 00:14:29,    262,    0.0,    1.5,   0.00,   0.00, 1005.1,    0.6, -999.0
29-11-2023, 00:14:39,    262,    0.0,    1.4,   0.00,   0.00, 1005.1,    0.5, -999.0
29-11-2023, 00:14:49,    263,    0.0,    1.4,   0.00,   0.00, 1005.1,    0.7, -999.0
29-11-2023, 00:14:59,    261,    0.0,    1.4,   0.00,   0.00, 1005.1,    0.7, -999.0
29-11-2023, 00:15:09,    262,    0.0,    1.4,   0.00,   0.00, 1005.1,    0.4, -999.0
29-11-2023, 00:15:19,    262,    0.0,    1.4,   0.00,   0.00, 1005.1,    0.6, -999.0
29-11-2023, 00:15:29,    262,    0.0,    1.4,   0.00,   0.00, 1005.1,    0.6, -999.0
29-11-2023, 00:15:39,    262,    0.0,    1.4,   0.00,   0.00, 1005.1,    0.6, -999.0
29-11-2023, 00:15:49,    262,    0.0,    1.4,   0.00,   0.00, 1005.1,    0.6, -999.0
29-11-2023, 00:15:59,    262,    0.0,    1.4,   0.00,   0.00, 1005.1,    0.4, -999.0
29-11-2023, 00:16:09,    262,    0.0,    1.4,   0.00,   0.00, 1005.1,    0.5, -999.0
29-11-2023, 00:16:19,    262,    0.0,    1.4,   0.00,   0.00, 1005.1,    0.8, -999.0
29-11-2023, 00:16:29,    262,    0.0,    1.4,   0.00,   0.00, 1005.1,    0.5, -999.0
29-11-2023, 00:16:39,    262,    0.0,    1.5,   0.00,   0.00, 1005.1,    0.4, -999.0
29-11-2023, 00:16:49,    262,    0.0,    1.4,   0.00,   0.00, 1005.1,    0.7, -999.0
29-11-2023, 00:16:59,    262,    0.0,    1.4,   0.00,   0.00, 1005.1,    0.5, -999.0
29-11-2023, 00:17:09,    262,    0.0,    1.4,   0.00,   0.00, 1005.1,    0.4, -999.0
29-11-2023, 00:17:19,    263,    0.0,    1.4,   0.00,   0.00, 1005.1,    0.6, -999.0
29-11-2023, 00:17:29,    262,    0.0,    1.4,   0.00,   0.00, 1005.1,    0.4, -999.0
29-11-2023, 00:17:38,    262,    0.0,    1.5,   0.00,   0.00, 1005.1,    0.5, -999.0
29-11-2023, 00:17:49,    262,    0.0,    1.4,   0.00,   0.00, 1005.1,    0.5, -999.0
29-11-2023, 00:17:59,    262,    0.0,    1.4,   0.00,   0.00, 1005.1,    0.5, -999.0
29-11-2023, 00:18:09,    262,    0.0,    1.5,   0.00,   0.00, 1005.1,    0.6, -999.0
29-11-2023, 00:18:18,    262,    0.0,    1.5,   0.00,   0.00, 1005.1,    0.6, -999.0
29-11-2023, 00:18:29,    262,    0.0,    1.5,   0.00,   0.00, 1005.1,    0.7, -999.0
29-11-2023, 00:18:39,    262,    0.0,    1.5,   0.00,   0.00, 1005.1,    0.9, -999.0
29-11-2023, 00:18:48,    262,    0.0,    1.4,   0.00,   0.00, 1005.1,    0.8, -999.0
29-11-2023, 00:18:58,    262,    0.0,    1.5,   0.00,   0.00, 1005.1,    1.2, -999.0
29-11-2023, 00:19:09,    262,    0.0,    1.5,   0.00,   0.00, 1005.1,    0.3, -999.0
29-11-2023, 00:19:19,    262,    0.0,    1.4,   0.00,   0.00, 1005.1,    0.5, -999.0
29-11-2023, 00:19:28,    262,    0.0,    1.4,   0.00,   0.00, 1005.1,    0.9, -999.0
29-11-2023, 00:19:38,    262,    0.0,    1.4,   0.00,   0.00, 1005.1,    0.5, -999.0
29-11-2023, 00:19:49,    262,    0.0,    1.4,   0.00,   0.00, 1005.1,    0.1, -999.0
29-11-2023, 00:19:58,    262,    0.0,    1.4,   0.00,   0.00, 1005.1,    0.3, -999.0
29-11-2023, 00:20:08,    262,    0.0,    1.4,   0.00,   0.00, 1005.1,    0.0, -999.0
29-11-2023, 00:20:18,    262,    0.0,    1.4,   0.00,   0.00, 1005.1,    0.1, -999.0
29-11-2023, 00:20:29,    262,    0.0,    1.4,   0.00,   0.00, 1005.1,    0.0, -999.0
29-11-2023, 00:20:38,    262,    0.0,    1.4,   0.00,   0.00, 1005.1,    0.1, -999.0
29-11-2023, 00:20:48,    262,    0.0,    1.4,   0.00,   0.00, 1005.1,    0.1, -999.0
29-11-2023, 00:20:58,    262,    0.0,    1.4,   0.00,   0.00, 1005.1,    0.7, -999.0
29-11-2023, 00:21:08,    262,    0.0,    1.2,   0.00,   0.00, 1005.1,    0.2, -999.0
29-11-2023, 00:21:18,    262,    0.0,    1.4,   0.00,   0.00, 1005.1,    0.4, -999.0
29-11-2023, 00:21:28,    262,    0.0,    1.4,   0.00,   0.00, 1005.1,    0.0, -999.0
29-11-2023, 00:21:38,    262,    0.0,    1.4,   0.00,   0.00, 1005.1,    0.0, -999.0
29-11-2023, 00:21:48,    262,    0.0,    1.4,   0.00,   0.00, 1005.1,    0.4, -999.0
29-11-2023, 00:21:58,    262,    0.0,    1.3,   0.00,   0.00, 1005.1,    0.5, -999.0
29-11-2023, 00:22:08,    262,    0.0,    1.4,   0.00,   0.00, 1005.1,    0.7, -999.0
29-11-2023, 00:22:18,    262,    0.0,    1.3,   0.00,   0.00, 1005.1,    0.6, -999.0
29-11-2023, 00:22:28,    262,    0.0,    1.4,   0.00,   0.00, 1005.1,    0.4, -999.0
29-11-2023, 00:22:38,    262,    0.0,    1.4,   0.00,   0.00, 1005.1,    0.3, -999.0
29-11-2023, 00:22:48,    262,    0.0,    1.4,   0.00,   0.00, 1005.1,    0.6, -999.0
29-11-2023, 00:22:58,    262,    0.0,    1.4,   0.00,   0.00, 1005.1,    0.4, -999.0
29-11-2023, 00:23:08,    262,    0.0,    1.4,   0.00,   0.00, 1005.1,    0.9, -999.0
29-11-2023, 00:23:18,    262,    0.0,    1.4,   0.00,   0.00, 1005.0,    0.8, -999.0
29-11-2023, 00:23:28,    262,    0.0,    1.4,   0.00,   0.00, 1005.0,    0.8, -999.0
29-11-2023, 00:23:38,    262,    0.0,    1.4,   0.00,   0.00, 1005.1,    0.6, -999.0
29-11-2023, 00:23:48,    262,    0.0,    1.4,   0.00,   0.00, 1005.1,    0.1, -999.0
29-11-2023, 00:23:58,    262,    0.0,    1.4,   0.00,   0.00, 1005.1,    0.6, -999.0
29-11-2023, 00:24:08,    262,    0.0,    1.4,   0.00,   0.00, 1005.1,    0.6, -999.0
29-11-2023, 00:24:18,    262,    0.0,    1.3,   0.00,   0.00, 1005.1,    0.7, -999.0
29-11-2023, 00:24:28,    261,    0.0,    1.4,   0.00,   0.00, 1005.0,    0.5, -999.0
29-11-2023, 00:24:38,    262,    0.0,    1.4,   0.00,   0.00, 1005.0,    0.6, -999.0
29-11-2023, 00:24:48,    262,    0.0,    1.4,   0.00,   0.00, 1005.1,    0.0, -999.0
29-11-2023, 00:24:58,    261,    0.0,    1.3,   0.00,   0.00, 1005.0,    0.4, -999.0
29-11-2023, 00:25:08,    261,    0.0,    1.3,   0.00,   0.00, 1005.1,    0.8, -999.0
29-11-2023, 00:25:18,    262,    0.0,    1.3,   0.00,   0.00, 1005.1,    0.4, -999.0
29-11-2023, 00:25:28,    262,    0.0,    1.4,   0.00,   0.00, 1005.1,    0.8, -999.0
29-11-2023, 00:25:38,    262,    0.0,    1.3,   0.00,   0.00, 1005.1,    0.3, -999.0
29-11-2023, 00:25:48,    261,    0.0,    1.3,   0.00,   0.00, 1005.1,    0.9, -999.0
29-11-2023, 00:25:58,    261,    0.0,    1.3,   0.00,   0.00, 1005.0,    0.1, -999.0
29-11-2023, 00:26:08,    261,    0.0,    1.3,   0.00,   0.00, 1005.0,    0.7, -999.0
29-11-2023, 00:26:18,    262,    0.0,    1.3,   0.00,   0.00, 1005.0,    0.2, -999.0
29-11-2023, 00:26:28,    262,    0.0,    1.3,   0.00,   0.00, 1005.0,    0.7, -999.0
29-11-2023, 00:26:38,    261,    0.0,    1.4,   0.00,   0.00, 1005.0,    0.7, -999.0
29-11-2023, 00:26:48,    262,    0.0,    1.4,   0.00,   0.00, 1005.0,    0.4, -999.0
29-11-2023, 00:26:58,    261,    0.0,    1.4,   0.00,   0.00, 1005.0,    0.7, -999.0
29-11-2023, 00:27:08,    261,    0.0,    1.4,   0.00,   0.00, 1005.0,    0.9, -999.0
29-11-2023, 00:27:17,    261,    0.0,    1.4,   0.00,   0.00, 1005.0,    0.6, -999.0
29-11-2023, 00:27:28,    261,    0.0,    1.4,   0.00,   0.00, 1005.1,    0.7, -999.0
29-11-2023, 00:27:38,    261,    0.0,    1.4,   0.00,   0.00, 1005.1,    0.1, -999.0
29-11-2023, 00:27:48,    262,    0.0,    1.4,   0.00,   0.00, 1005.1,    1.3, -999.0
29-11-2023, 00:27:57,    261,    0.2,    1.5,   0.00,   0.00, 1005.1,    0.7, -999.0
29-11-2023, 00:28:08,    261,    0.4,    1.4,   0.00,   0.00, 1005.1,    0.6, -999.0
29-11-2023, 00:28:18,    261,    0.1,    1.4,   0.00,   0.00, 1005.1,    0.7, -999.0
29-11-2023, 00:28:27,    262,    0.0,    1.4,   0.00,   0.00, 1005.0,    0.7, -999.0
29-11-2023, 00:28:37,    261,    0.0,    1.4,   0.00,   0.00, 1005.1,    0.6, -999.0
29-11-2023, 00:28:48,    261,    0.0,    1.3,   0.00,   0.00, 1005.1,    0.6, -999.0
29-11-2023, 00:28:57,    261,    0.0,    1.4,   0.00,   0.00, 1005.0,    0.4, -999.0
29-11-2023, 00:29:07,    261,    0.0,    1.3,   0.00,   0.00, 1005.0,    0.4, -999.0
29-11-2023, 00:29:18,    261,    0.0,    1.3,   0.00,   0.00, 1005.0,    1.1, -999.0
29-11-2023, 00:29:28,    261,    0.0,    1.4,   0.00,   0.00, 1005.1,    0.5, -999.0
29-11-2023, 00:29:37,    261,    0.0,    1.4,   0.00,   0.00, 1005.0,    0.4, -999.0
29-11-2023, 00:29:47,    261,    0.0,    1.3,   0.00,   0.00, 1005.1,    0.6, -999.0
29-11-2023, 00:29:58,    261,    0.0,    1.3,   0.00,   0.00, 1005.0,    0.3, -999.0
29-11-2023, 00:30:07,    261,    0.0,    1.4,   0.00,   0.00, 1005.1,    0.5, -999.0
29-11-2023, 00:30:17,    260,    0.0,    1.4,   0.00,   0.00, 1005.1,    0.7, -999.0
29-11-2023, 00:30:27,    261,    0.0,    1.4,   0.00,   0.00, 1005.0,    0.7, -999.0
29-11-2023, 00:30:38,    261,    0.0,    1.4,   0.00,   0.00, 1005.0,    0.8, -999.0
29-11-2023, 00:30:47,    261,    0.0,    1.4,   0.00,   0.00, 1005.1,    0.3, -999.0
29-11-2023, 00:30:57,    261,    0.0,    1.4,   0.00,   0.00, 1005.0,    0.5, -999.0
29-11-2023, 00:31:07,    261,    0.0,    1.4,   0.00,   0.00, 1005.0,    0.6, -999.0
29-11-2023, 00:31:19,    261,    0.0,    1.3,   0.00,   0.00, 1005.0,    0.5, -999.0
29-11-2023, 00:31:27,    261,    0.0,    1.2,   0.00,   0.00, 1005.0,    0.7, -999.0
29-11-2023, 00:31:37,    261,    0.0,    1.3,   0.00,   0.00, 1005.0,    0.6, -999.0
29-11-2023, 00:31:47,    261,    0.0,    1.3,   0.00,   0.00, 1005.0,    0.7, -999.0
29-11-2023, 00:31:57,    261,    0.0,    1.4,   0.00,   0.00, 1005.1,    0.8, -999.0
29-11-2023, 00:32:07,    261,    0.0,    1.3,   0.00,   0.00, 1005.0,    0.5, -999.0
29-11-2023, 00:32:17,    261,    0.0,    1.4,   0.00,   0.00, 1005.1,    0.3, -999.0
29-11-2023, 00:32:27,    261,    0.0,    1.3,   0.00,   0.00, 1005.1,    0.4, -999.0
29-11-2023, 00:32:37,    261,    0.0,    1.4,   0.00,   0.00, 1005.0,    0.6, -999.0
29-11-2023, 00:32:47,    260,    0.0,    1.3,   0.00,   0.00, 1005.1,    0.9, -999.0
29-11-2023, 00:32:57,    261,    0.0,    1.3,   0.00,   0.00, 1005.0,    0.4, -999.0
29-11-2023, 00:33:07,    261,    0.0,    1.4,   0.00,   0.00, 1005.0,    0.6, -999.0
29-11-2023, 00:33:17,    261,    0.0,    1.3,   0.00,   0.00, 1005.0,    0.4, -999.0
29-11-2023, 00:33:27,    261,    0.0,    1.3,   0.00,   0.00, 1005.1,    0.3, -999.0
29-11-2023, 00:33:37,    261,    0.0,    1.3,   0.00,   0.00, 1005.0,    0.8, -999.0
29-11-2023, 00:33:47,    261,    0.0,    1.3,   0.00,   0.00, 1005.0,    0.6, -999.0
29-11-2023, 00:33:57,    261,    0.0,    1.3,   0.00,   0.00, 1005.0,    0.4, -999.0
29-11-2023, 00:34:07,    261,    0.0,    1.3,   0.00,   0.00, 1005.0,    0.0, -999.0
29-11-2023, 00:34:17,    261,    0.0,    1.3,   0.00,   0.00, 1005.0,    0.9, -999.0
29-11-2023, 00:34:27,    261,    0.0,    1.3,   0.00,   0.00, 1005.0,    0.5, -999.0
29-11-2023, 00:34:37,    261,    0.0,    1.3,   0.00,   0.00, 1005.0,    1.4, -999.0
29-11-2023, 00:34:47,    261,    0.0,    1.3,   0.00,   0.00, 1005.0,    0.8, -999.0
29-11-2023, 00:34:57,    261,    0.0,    1.3,   0.00,   0.00, 1005.0,    0.4, -999.0
29-11-2023, 00:35:07,    262,    0.0,    1.3,   0.00,   0.00, 1005.0,    0.3, -999.0
29-11-2023, 00:35:17,    262,    0.0,    1.4,   0.00,   0.00, 1005.0,    0.3, -999.0
29-11-2023, 00:35:27,    261,    0.0,    1.3,   0.00,   0.00, 1005.0,    0.7, -999.0
29-11-2023, 00:35:37,    261,    0.0,    1.3,   0.00,   0.00, 1005.0,    0.7, -999.0
29-11-2023, 00:35:47,    261,    0.0,    1.3,   0.00,   0.00, 1005.0,    0.7, -999.0
29-11-2023, 00:35:57,    262,    0.0,    1.3,   0.00,   0.00, 1005.0,    0.6, -999.0
29-11-2023, 00:36:07,    261,    0.0,    1.3,   0.00,   0.00, 1005.0,    0.5, -999.0
29-11-2023, 00:36:17,    261,    0.0,    1.3,   0.00,   0.00, 1005.0,    0.7, -999.0
29-11-2023, 00:36:27,    261,    0.0,    1.3,   0.00,   0.00, 1005.0,    0.4, -999.0
29-11-2023, 00:36:37,    261,    0.0,    1.2,   0.00,   0.00, 1005.0,    0.3, -999.0
29-11-2023, 00:36:47,    261,    0.0,    1.3,   0.00,   0.00, 1005.0,    0.6, -999.0
29-11-2023, 00:36:57,    261,    0.0,    1.2,   0.00,   0.00, 1005.0,    0.6, -999.0
29-11-2023, 00:37:07,    261,    0.0,    1.3,   0.00,   0.00, 1005.0,    0.9, -999.0
29-11-2023, 00:37:17,    261,    0.0,    1.3,   0.00,   0.00, 1005.0,    0.2, -999.0
29-11-2023, 00:37:26,    262,    0.0,    1.3,   0.00,   0.00, 1004.9,    0.4, -999.0
29-11-2023, 00:37:37,    262,    0.0,    1.3,   0.00,   0.00, 1004.9,    0.6, -999.0
29-11-2023, 00:37:47,    262,    0.0,    1.3,   0.00,   0.00, 1004.9,    0.7, -999.0
29-11-2023, 00:37:57,    261,    0.0,    1.2,   0.00,   0.00, 1005.0,    0.7, -999.0
29-11-2023, 00:38:06,    261,    0.0,    1.3,   0.00,   0.00, 1004.9,    0.8, -999.0
29-11-2023, 00:38:17,    261,    0.0,    1.3,   0.00,   0.00, 1004.9,    0.4, -999.0
29-11-2023, 00:38:27,    261,    0.0,    1.3,   0.00,   0.00, 1004.9,    0.5, -999.0
29-11-2023, 00:38:36,    261,    0.0,    1.3,   0.00,   0.00, 1004.9,    0.7, -999.0
29-11-2023, 00:38:46,    261,    0.0,    1.2,   0.00,   0.00, 1004.9,    0.5, -999.0
29-11-2023, 00:38:57,    261,    0.0,    1.3,   0.00,   0.00, 1004.9,    0.4, -999.0
29-11-2023, 00:39:06,    261,    0.0,    1.3,   0.00,   0.00, 1004.9,    0.4, -999.0
29-11-2023, 00:39:16,    262,    0.0,    1.3,   0.00,   0.00, 1004.9,    0.5, -999.0
29-11-2023, 00:39:26,    262,    0.0,    1.3,   0.00,   0.00, 1004.9,    0.3, -999.0
29-11-2023, 00:39:37,    261,    0.0,    1.3,   0.00,   0.00, 1004.9,    0.5, -999.0
29-11-2023, 00:39:46,    261,    0.0,    1.3,   0.00,   0.00, 1004.9,    0.0, -999.0
29-11-2023, 00:39:56,    261,    0.0,    1.2,   0.00,   0.00, 1004.9,    0.8, -999.0
29-11-2023, 00:40:06,    261,    0.0,    1.2,   0.00,   0.00, 1004.9,    0.7, -999.0
29-11-2023, 00:40:16,    261,    0.0,    1.3,   0.00,   0.00, 1004.9,    0.6, -999.0
29-11-2023, 00:40:26,    261,    0.0,    1.3,   0.00,   0.00, 1004.9,    0.6, -999.0
29-11-2023, 00:40:36,    261,    0.0,    1.3,   0.00,   0.00, 1004.9,    0.2, -999.0
29-11-2023, 00:40:46,    261,    0.0,    1.3,   0.00,   0.00, 1004.9,    0.7, -999.0
29-11-2023, 00:40:56,    261,    0.0,    1.3,   0.00,   0.00, 1004.9,    0.9, -999.0
29-11-2023, 00:41:06,    262,    0.3,    1.3,   0.00,   0.00, 1005.0,    0.5, -999.0
29-11-2023, 00:41:16,    262,    0.1,    1.3,   0.00,   0.00, 1005.0,    0.3, -999.0
29-11-2023, 00:41:26,    264,    0.0,    1.2,   0.00,   0.00, 1004.9,    0.2, -999.0
29-11-2023, 00:41:36,    262,    0.0,    1.2,   0.00,   0.00, 1004.9,    0.6, -999.0
29-11-2023, 00:41:46,    261,    0.0,    1.3,   0.00,   0.00, 1004.9,    0.6, -999.0
29-11-2023, 00:41:56,    261,    0.0,    1.3,   0.00,   0.00, 1004.9,    0.8, -999.0
29-11-2023, 00:42:06,    261,    0.0,    1.3,   0.00,   0.00, 1004.9,    0.4, -999.0
29-11-2023, 00:42:16,    262,    0.0,    1.4,   0.00,   0.00, 1005.0,    0.6, -999.0
29-11-2023, 00:42:26,    261,    0.0,    1.3,   0.00,   0.00, 1004.9,    0.3, -999.0
29-11-2023, 00:42:36,    262,    0.0,    1.2,   0.00,   0.00, 1004.9,    1.2, -999.0
29-11-2023, 00:42:46,    242,    0.0,    1.2,   0.00,   0.00, 1004.9,    0.9, -999.0
29-11-2023, 00:42:56,    257,    0.3,    1.4,   0.00,   0.00, 1005.0,    0.8, -999.0
29-11-2023, 00:43:06,    257,    0.0,    1.4,   0.00,   0.00, 1005.0,    0.7, -999.0
29-11-2023, 00:43:16,    258,    0.3,    1.3,   0.00,   0.00, 1005.0,    0.9, -999.0
29-11-2023, 00:43:26,    254,    0.9,    1.4,   0.00,   0.00, 1005.1,    0.4, -999.0
29-11-2023, 00:43:36,    255,    0.1,    1.4,   0.00,   0.00, 1005.0,    0.7, -999.0
29-11-2023, 00:43:46,    254,    0.0,    1.3,   0.00,   0.00, 1005.0,    0.4, -999.0
29-11-2023, 00:43:56,    254,    0.4,    1.4,   0.00,   0.00, 1005.1,    0.6, -999.0
29-11-2023, 00:44:06,    254,    0.0,    1.3,   0.00,   0.00, 1005.0,    0.7, -999.0
29-11-2023, 00:44:18,    254,    0.0,    1.1,   0.00,   0.00, 1004.9,    0.5, -999.0
29-11-2023, 00:44:26,    254,    0.0,    1.4,   0.00,   0.00, 1005.0,    0.5, -999.0
29-11-2023, 00:44:36,    254,    0.0,    1.3,   0.00,   0.00, 1004.9,    0.6, -999.0
29-11-2023, 00:44:46,    254,    0.0,    1.2,   0.00,   0.00, 1004.9,    0.4, -999.0
29-11-2023, 00:44:56,    254,    0.0,    1.3,   0.00,   0.00, 1005.0,    0.8, -999.0
29-11-2023, 00:45:06,    254,    0.8,    1.3,   0.00,   0.00, 1005.0,    0.6, -999.0
29-11-2023, 00:45:16,    255,    0.9,    1.5,   0.00,   0.00, 1005.1,    0.6, -999.0
29-11-2023, 00:45:26,    255,    0.0,    1.4,   0.00,   0.00, 1005.0,    0.6, -999.0
29-11-2023, 00:45:36,    254,    0.9,    1.3,   0.00,   0.00, 1005.0,    0.6, -999.0
29-11-2023, 00:45:46,    254,    0.3,    1.4,   0.00,   0.00, 1005.0,    0.6, -999.0
29-11-2023, 00:45:56,    254,    0.0,    1.3,   0.00,   0.00, 1004.9,    0.6, -999.0
29-11-2023, 00:46:06,    254,    0.0,    1.3,   0.00,   0.00, 1004.9,    0.9, -999.0
29-11-2023, 00:46:16,    254,    0.0,    1.2,   0.00,   0.00, 1004.9,    0.5, -999.0
29-11-2023, 00:46:26,    254,    0.0,    1.3,   0.00,   0.00, 1004.9,    0.4, -999.0
29-11-2023, 00:46:36,    254,    0.0,    1.3,   0.00,   0.00, 1004.9,    0.6, -999.0
29-11-2023, 00:46:46,    254,    0.0,    1.3,   0.00,   0.00, 1004.9,    0.5, -999.0